Temp
-9 -9 -9 -9 -9 -9 -9 -9 -9 -9 -9 -9 -9 -9 -9 -9 -9 -9 -8 -9 -8 -9 -9 -9 -9 -9 -9 -9 -9 -9 -9 -10 -9 -9 -10 -10 -10 -10 -10 -10 -10 -10 -9 -9 -9
-9 -9 -9 -9 -9 -9 -9 -9 -9 -9 -9 -9 -9 -9 -9 -9 -9 -9 -9 -9 -9 -9 -9 -9 -9 -9 -9 -9 -9 -9 -9 -10 -10 -10 -10 -10 -10 -10 -10 -10 -11 -10 -10 -10 -10
-9 -9 -9 -9 -9 -9 -9 -9 -9 -9 -9 -9 -9 -9 -9 -9 -9 -9 -9 -9 -9 -9 -9 -9 -9 -9 -9 -9 -9 -9 -9 -10 -10 -10 -10 -10 -10 -10 -10 -11 -11 -11 -10 -10 -10
-9 -9 -9 -9 -9 -9 -9 -9 -9 -9 -9 -9 -9 -9 -9 -9 -9 -9 -9 -9 -9 -9 -9 -9 -9 -9 -9 -9 -9 -9 -10 -10 -10 -11 -10 -10 -10 -11 -10 -11 -12 -11 -11 -11 -11
-9 -9 -9 -9 -9 -9 -9 -9 -9 -9 -9 -9 -9 -9 -9 -9 -9 -9 -9 -9 -9 -9 -9 -9 -10 -10 -10 -9 -10 -10 -10 -10 -10 -10 -11 -11 -11 -10 -10 -12 -12 -11 -11 -11 -11
-10 -9 -9 -9 -9 -9 -9 -9 -9 -9 -9 -9 -9 -9 -9 -9 -9 -9 -9 -9 -9 -9 -9 -10 -10 -10 -10 -10 -10 -10 -10 -10 -10 -10 -11 -12 -11 -9 -10 -12 -11 -11 -11 -11 -10
-10 -10 -10 -10 -10 -10 -10 -10 -10 -10 -9 -9 -9 -9 -9 -10 -10 -10 -10 -10 -10 -10 -10 -10 -10 -10 -10 -10 -10 -10 -10 -10 -10 -11 -11 -11 -10 -10 -11 -11 -11 -11 -11 -10 -10
-10 -10 -10 -10 -10 -10 -10 -10 -10 -10 -9 -9 -9 -9 -9 -10 -10 -10 -10 -10 -10 -10 -10 -10 -10 -10 -10 -10 -10 -10 -10 -10 -11 -11 -10 -11 -10 -10 -11 -11 -11 -11 -11 -10 -10
-10 -10 -10 -10 -10 -10 -10 -10 -10 -10 -10 -10 -10 -10 -10 -10 -10 -11 -11 -11 -11 -10 -10 -10 -10 -10 -11 -11 -10 -11 -11 -10 -10 -11 -10 -10 -10 -10 -10 -10 -10 -10 -10 -10 -10
-11 -10 -10 -10 -10 -10 -10 -10 -10 -10 -10 -10 -10 -10 -10 -10 -11 -11 -11 -11 -11 -11 -11 -11 -11 -11 -11 -11 -11 -11 -10 -10 -10 -11 -10 -10 -10 -10 -11 -10 -10 -10 -10 -10 -11
-11 -11 -10 -10 -10 -10 -10 -10 -10 -10 -10 -10 -10 -10 -10 -10 -10 -11 -11 -10 -10 -10 -11 -11 -10 -10 -11 -12 -11 -11 -10 -10 -10 -11 -10 -9 -8 -9 -9 -9 -9 -9 -10 -10 -10
-11 -11 -11 -10 -10 -11 -11 -11 -11 -10 -10 -11 -11 -10 -11 -10 -10 -11 -11 -11 -10 -10 -11 -10 -10 -11 -12 -12 -11 -11 -11 -10 -10 -11 -10 -9 -8 -8 -9 -9 -9 -10 -10 -10 -10
-11 -11 -11 -11 -11 -11 -11 -11 -11 -11 -10 -10 -11 -11 -11 -11 -10 -11 -11 -11 -11 -10 -11 -10 -10 -11 -12 -11 -12 -11 -12 -11 -10 -10 -9 -9 -7 -8 -8 -9 -9 -10 -10 -10 -10
-12 -12 -12 -12 -12 -12 -12 -12 -12 -11 -10 -10 -10 -10 -11 -11 -11 -11 -12 -11 -11 -11 -11 -11 -11 -11 -12 -12 -12 -11 -12 -11 -11 -11 -9 -8 -7 -6 -8 -8 -9 -10 -10 -9 -10
-12 -12 -12 -12 -12 -12 -12 -12 -12 -13 -11 -11 -11 -11 -11 -11 -11 -12 -12 -12 -12 -12 -12 -11 -12 -12 -12 -13 -13 -12 -13 -12 -12 -11 -10 -9 -9 -7 -8 -8 -8 -9 -10 -10 -10
-12 -12 -12 -12 -12 -13 -12 -12 -13 -14 -10 -12 -12 -12 -12 -13 -13 -12 -13 -13 -13 -13 -12 -13 -13 -13 -13 -13 -13 -12 -13 -13 -12 -12 -10 -10 -11 -8 -8 -9 -9 -9 -10 -10 -10
-13 -14 -14 -13 -13 -14 -14 -14 -14 -12 -11 -12 -13 -13 -13 -13 -14 -14 -14 -13 -14 -13 -13 -13 -13 -13 -13 -13 -14 -14 -13 -14 -13 -13 -11 -11 -11 -9 -10 -10 -10 -11 -11 -11 -11
-14 -14 -14 -15 -14 -14 -15 -14 -14 -12 -12 -13 -13 -14 -14 -14 -14 -15 -14 -14 -14 -14 -13 -13 -13 -13 -13 -14 -14 -14 -15 -14 -14 -13 -12 -12 -9 -9 -10 -10 -11 -11 -12 -12 -13
-14 -15 -15 -15 -15 -15 -15 -15 -14 -14 -14 -15 -15 -15 -14 -14 -16 -15 -15 -15 -15 -15 -15 -15 -13 -13 -13 -13 -14 -14 -15 -16 -16 -15 -15 -12 -10 -10 -10 -10 -11 -11 -12 -14 -13
-16 -15 -15 -15 -16 -15 -15 -14 -15 -15 -15 -15 -15 -15 -15 -15 -16 -15 -15 -14 -15 -16 -16 -16 -15 -14 -14 -15 -15 -16 -16 -16 -17 -17 -16 -14 -13 -10 -11 -12 -13 -13 -14 -14 -14
-16 -16 -16 -17 -18 -17 -16 -15 -15 -15 -17 -17 -17 -17 -16 -16 -17 -17 -18 -15 -16 -17 -17 -17 -17 -15 -15 -14 -15 -16 -17 -17 -18 -18 -18 -17 -14 -12 -13 -13 -14 -15 -16 -16 -15
-17 -18 -17 -17 -18 -18 -17 -18 -18 -17 -18 -19 -19 -19 -19 -18 -19 -19 -18 -18 -18 -19 -19 -19 -20 -19 -16 -16 -17 -17 -18 -18 -19 -18 -19 -19 -18 -12 -14 -15 -16 -16 -15 -15 -15
-18 -18 -18 -18 -18 -18 -18 -18 -19 -18 -18 -19 -19 -19 -19 -20 -20 -20 -20 -19 -20 -20 -20 -20 -20 -20 -20 -18 -18 -19 -18 -19 -19 -19 -19 -19 -19 -18 -17 -17 -17 -16 -16 -15 -15
-19 -19 -19 -19 -19 -19 -19 -19 -19 -19 -19 -20 -20 -20 -20 -20 -20 -21 -20 -20 -20 -20 -21 -21 -21 -21 -21 -21 -20 -20 -20 -19 -19 -19 -19 -20 -21 -20 -20 -18 -17 -17 -17 -17 -16
-20 -20 -20 -20 -20 -20 -20 -20 -20 -20 -20 -21 -21 -20 -21 -21 -20 -20 -20 -20 -20 -21 -21 -21 -21 -21 -21 -21 -21 -21 -21 -21 -20 -21 -21 -21 -21 -21 -21 -21 -19 -19 -19 -19 -18
-21 -22 -21 -21 -21 -21 -21 -21 -21 -21 -22 -21 -22 -21 -21 -21 -22 -21 -22 -22 -22 -22 -22 -22 -22 -22 -22 -22 -22 -21 -21 -22 -22 -22 -21 -21 -22 -22 -21 -20 -20 -21 -21 -20 -20
-22 -23 -23 -22 -22 -22 -22 -23 -22 -22 -23 -23 -22 -23 -23 -23 -23 -23 -23 -23 -23 -22 -23 -23 -23 -23 -23 -23 -23 -22 -22 -23 -23 -22 -22 -22 -23 -23 -22 -21 -21 -22 -22 -22 -22
Height
5871 5872 5872 5873 5873 5874 5874 5874 5874 5874 5874 5874 5874 5874 5873 5873 5873 5872 5871 5871 5870 5869 5868 5867 5867 5865 5864 5864 5863 5862 5862 5861 5859 5858 5857 5856 5855 5854 5855 5854 5853 5851 5850 5850 5849
5867 5868 5869 5869 5870 5870 5871 5871 5871 5871 5870 5870 5870 5870 5870 5870 5869 5868 5868 5866 5866 5865 5864 5863 5862 5861 5860 5859 5858 5857 5858 5855 5853 5851 5852 5851 5850 5848 5850 5849 5847 5845 5846 5846 5845
5863 5864 5864 5865 5865 5866 5866 5866 5866 5866 5866 5866 5865 5865 5866 5866 5865 5863 5863 5862 5861 5860 5859 5858 5857 5855 5854 5853 5852 5852 5853 5848 5848 5845 5845 5845 5844 5843 5843 5845 5840 5842 5840 5840 5840
5857 5858 5859 5859 5860 5860 5861 5861 5861 5861 5860 5860 5860 5860 5860 5861 5861 5858 5858 5857 5856 5855 5854 5853 5851 5849 5848 5846 5844 5844 5847 5843 5844 5838 5838 5837 5838 5837 5835 5838 5834 5834 5833 5833 5833
5851 5851 5852 5853 5853 5854 5854 5854 5855 5854 5854 5854 5853 5853 5854 5857 5854 5851 5852 5851 5850 5849 5847 5846 5845 5841 5841 5841 5838 5838 5839 5837 5837 5835 5831 5829 5832 5828 5830 5830 5826 5826 5826 5825 5825
5843 5844 5845 5846 5846 5847 5847 5846 5847 5847 5846 5846 5846 5846 5848 5853 5847 5845 5844 5844 5844 5843 5842 5840 5838 5835 5834 5835 5832 5831 5832 5832 5832 5830 5824 5820 5824 5821 5827 5819 5821 5819 5820 5818 5819
5836 5836 5837 5838 5839 5839 5839 5839 5840 5839 5839 5838 5838 5838 5840 5845 5842 5840 5837 5837 5837 5836 5835 5833 5830 5828 5828 5828 5826 5823 5823 5824 5828 5822 5815 5811 5814 5819 5819 5812 5814 5813 5812 5811 5812
5828 5829 5829 5830 5831 5831 5831 5831 5831 5831 5830 5829 5829 5829 5832 5836 5834 5833 5830 5831 5830 5829 5828 5826 5822 5819 5820 5820 5816 5816 5812 5814 5822 5817 5810 5804 5799 5817 5808 5804 5806 5805 5804 5804 5805
5820 5820 5821 5821 5822 5822 5822 5823 5823 5822 5822 5821 5821 5819 5823 5828 5827 5825 5824 5824 5823 5822 5819 5817 5813 5810 5811 5813 5806 5809 5800 5802 5806 5813 5801 5794 5791 5806 5804 5798 5797 5799 5797 5798 5798
5810 5810 5811 5812 5813 5813 5812 5813 5813 5813 5813 5812 5811 5812 5812 5816 5817 5817 5817 5816 5814 5813 5811 5809 5803 5800 5805 5806 5795 5794 5791 5792 5794 5805 5794 5783 5781 5786 5797 5790 5791 5794 5793 5791 5790
5800 5801 5801 5801 5802 5803 5803 5803 5803 5803 5803 5803 5801 5801 5802 5801 5803 5807 5807 5807 5805 5803 5801 5797 5792 5794 5800 5792 5788 5785 5783 5781 5787 5789 5778 5776 5770 5777 5783 5786 5786 5785 5784 5784 5782
5789 5789 5790 5791 5791 5791 5791 5791 5790 5789 5790 5791 5792 5789 5790 5789 5789 5793 5796 5796 5795 5792 5789 5787 5781 5788 5784 5783 5780 5777 5775 5773 5773 5775 5769 5766 5761 5765 5772 5774 5779 5777 5775 5774 5775
5777 5777 5778 5778 5779 5780 5779 5778 5777 5775 5774 5779 5780 5777 5778 5780 5779 5781 5782 5780 5780 5778 5780 5775 5772 5774 5774 5771 5771 5770 5766 5764 5759 5760 5760 5756 5747 5753 5764 5765 5767 5768 5766 5764 5762
5764 5765 5766 5766 5767 5766 5766 5766 5765 5764 5760 5760 5764 5766 5769 5769 5767 5769 5768 5767 5764 5765 5765 5760 5764 5764 5760 5759 5761 5754 5758 5755 5752 5748 5745 5746 5739 5736 5749 5754 5754 5758 5760 5757 5755
5752 5751 5753 5753 5754 5752 5753 5752 5752 5755 5748 5745 5742 5749 5754 5757 5756 5757 5757 5754 5752 5751 5750 5752 5750 5750 5749 5750 5746 5747 5744 5745 5745 5741 5735 5731 5733 5732 5733 5735 5739 5743 5744 5746 5745
5740 5740 5740 5741 5741 5739 5738 5738 5740 5743 5730 5733 5731 5734 5737 5738 5741 5742 5741 5741 5739 5737 5735 5738 5737 5735 5737 5738 5736 5736 5733 5731 5729 5728 5724 5726 5728 5720 5721 5720 5721 5724 5724 5722 5721
5727 5728 5728 5729 5729 5728 5727 5728 5728 5725 5722 5722 5720 5721 5723 5724 5724 5724 5727 5728 5727 5724 5723 5723 5723 5724 5724 5723 5724 5723 5719 5714 5712 5713 5714 5717 5712 5707 5707 5713 5712 5712 5708 5705 5702
5714 5715 5716 5714 5715 5717 5715 5715 5714 5710 5709 5708 5709 5710 5709 5710 5709 5710 5711 5715 5714 5711 5709 5707 5711 5708 5711 5711 5708 5707 5704 5701 5695 5698 5698 5700 5688 5697 5705 5704 5701 5696 5694 5691 5688
5699 5701 5703 5701 5700 5701 5701 5699 5700 5702 5701 5699 5698 5695 5697 5697 5695 5696 5697 5699 5700 5698 5692 5687 5693 5693 5694 5693 5693 5692 5688 5688 5678 5680 5674 5683 5687 5687 5693 5692 5684 5680 5676 5673 5672
5682 5684 5689 5686 5681 5682 5680 5684 5687 5694 5691 5682 5678 5681 5681 5679 5676 5676 5679 5681 5681 5679 5674 5670 5671 5675 5675 5676 5672 5669 5672 5668 5664 5654 5653 5663 5666 5675 5681 5674 5670 5663 5659 5658 5659
5667 5669 5670 5669 5665 5664 5664 5669 5671 5678 5671 5665 5662 5659 5663 5664 5660 5656 5657 5660 5665 5661 5658 5654 5650 5661 5654 5656 5659 5654 5650 5650 5647 5641 5629 5629 5640 5669 5659 5654 5651 5643 5635 5636 5637
5653 5654 5654 5651 5650 5649 5652 5657 5656 5657 5650 5647 5644 5643 5642 5645 5639 5639 5638 5641 5644 5641 5638 5639 5628 5626 5640 5643 5634 5630 5629 5631 5623 5621 5616 5607 5604 5651 5644 5637 5626 5614 5618 5617 5618
5636 5636 5636 5632 5631 5634 5636 5637 5635 5641 5637 5629 5626 5629 5630 5626 5619 5621 5623 5628 5625 5624 5619 5622 5612 5607 5612 5625 5620 5613 5614 5610 5608 5602 5594 5587 5587 5615 5618 5611 5598 5595 5598 5597 5596
5619 5617 5618 5614 5617 5615 5615 5616 5616 5623 5619 5613 5610 5611 5610 5607 5609 5600 5604 5606 5609 5609 5606 5603 5597 5597 5592 5599 5603 5589 5591 5593 5588 5579 5574 5570 5570 5579 5579 5584 5580 5575 5574 5573 5570
5601 5601 5600 5599 5599 5599 5597 5598 5603 5603 5598 5596 5591 5594 5591 5588 5590 5587 5586 5589 5590 5589 5588 5584 5577 5580 5578 5576 5579 5571 5571 5574 5568 5564 5556 5557 5550 5549 5555 5557 5560 5557 5553 5549 5548
5582 5583 5583 5583 5582 5581 5580 5584 5582 5587 5577 5582 5571 5577 5573 5570 5570 5572 5570 5568 5570 5571 5570 5565 5559 5556 5555 5563 5556 5549 5556 5559 5554 5550 5537 5533 5533 5531 5533 5533 5534 5535 5534 5534 5527
5564 5562 5562 5566 5566 5564 5567 5565 5564 5563 5558 5561 5559 5554 5553 5554 5550 5549 5550 5550 5549 5549 5553 5547 5543 5540 5528 5546 5533 5526 5543 5538 5532 5529 5521 5520 5516 5513 5510 5508 5507 5509 5508 5510 5511
Wind_Speed
20 19 17 17 17 16 15 15 15 15 15 15 15 15 16 17 18 19 19 19 20 20 21 23 23 24 24 24 24 25 24 22 25 23 22 22 21 22 17 17 18 20 18 18 16
23 22 20 20 20 19 20 21 22 22 22 22 21 21 21 20 22 22 22 23 24 24 24 24 25 27 28 28 28 29 27 25 28 27 26 25 24 26 22 22 22 25 22 19 20
28 28 27 26 26 26 26 26 27 27 28 29 28 28 27 25 26 25 26 27 27 28 29 28 28 29 29 32 32 31 29 30 29 32 31 28 27 27 27 21 26 24 26 24 23
35 34 34 33 32 32 32 32 32 33 33 34 34 33 31 29 29 30 29 29 29 29 30 31 31 32 31 33 35 34 30 33 30 35 34 32 29 29 31 23 27 27 28 27 25
40 40 40 40 40 39 39 39 39 39 40 40 40 39 35 29 28 33 30 30 30 30 31 32 33 35 35 35 37 36 31 32 31 31 34 35 29 32 27 24 30 29 28 29 28
39 40 40 40 41 41 41 41 41 40 40 40 41 41 38 27 31 34 33 30 31 32 34 36 37 38 38 36 38 38 34 33 30 31 35 37 32 37 23 30 30 31 28 31 28
37 37 36 36 36 36 37 38 37 39 39 40 40 39 36 29 32 31 33 34 34 35 36 39 42 43 41 39 40 41 40 35 28 32 39 42 39 33 31 35 30 33 33 32 30
43 42 42 42 42 43 43 42 42 43 43 43 42 41 37 30 32 33 36 37 38 39 40 42 45 46 44 43 45 43 43 39 28 34 40 45 48 26 36 39 36 36 36 35 32
46 47 47 47 46 46 47 46 46 44 44 44 45 45 41 34 35 39 40 41 42 43 44 45 47 47 45 42 47 43 49 45 38 28 40 47 48 33 35 41 41 39 41 38 36
47 48 48 48 48 48 48 47 48 48 48 48 49 48 47 42 41 41 43 45 46 47 49 48 50 51 44 40 47 46 49 48 45 30 40 49 50 47 36 42 40 38 39 40 39
50 50 50 51 51 52 52 51 52 52 51 51 53 53 52 52 50 46 44 44 46 47 48 51 53 50 41 45 48 50 51 50 45 41 49 48 52 47 41 37 32 30 32 35 38
50 51 51 51 52 52 52 55 55 56 55 55 54 56 54 54 52 47 44 45 46 48 50 51 56 49 50 49 50 51 52 53 51 48 53 53 50 49 42 36 31 31 27 28 26
56 56 55 55 55 56 56 56 59 58 59 56 55 57 55 53 52 50 48 50 50 51 48 50 54 51 50 53 50 48 53 53 56 54 55 57 53 48 39 39 33 23 35 27 31
60 60 61 61 60 61 62 62 59 60 62 62 60 58 55 54 56 53 52 50 51 45 48 54 51 51 52 51 49 54 43 52 52 55 56 54 55 54 45 38 41 34 35 31 23
54 52 55 57 60 62 64 64 63 59 63 63 65 59 55 54 55 53 50 49 48 45 46 45 43 43 47 44 50 52 48 48 52 57 57 58 59 59 56 48 50 45 41 44 42
49 51 56 54 54 58 60 61 59 57 69 68 70 68 66 66 63 61 57 52 48 49 50 49 49 52 48 48 50 51 52 54 55 58 61 57 54 63 63 61 56 56 57 57 56
55 58 55 55 50 50 49 47 47 56 63 65 66 66 65 62 60 60 56 51 49 49 47 48 49 50 53 52 51 53 53 54 57 60 62 62 63 65 66 65 64 61 61 61 63
61 59 58 57 47 46 47 51 49 61 59 62 58 55 57 54 55 54 56 55 51 53 55 56 54 53 53 54 56 57 58 62 63 63 64 64 73 70 65 67 68 69 65 64 60
62 62 64 58 62 61 62 62 67 62 63 60 60 58 58 57 53 52 56 57 56 56 61 66 65 63 61 63 64 64 63 58 62 64 69 70 69 71 68 69 73 73 72 65 64
63 66 63 70 67 71 69 70 69 65 61 64 67 65 67 67 65 64 64 67 68 65 66 68 70 68 68 66 69 69 70 71 70 65 68 74 76 74 71 71 73 75 68 66 64
68 70 70 66 64 68 76 79 75 69 64 68 70 67 72 72 66 68 64 72 70 71 64 66 67 70 74 76 73 72 72 70 70 70 77 81 82 68 73 76 76 76 78 77 76
68 68 70 70 71 73 72 66 67 68 68 69 69 70 71 70 69 68 69 69 70 67 70 67 68 71 75 75 77 77 77 74 69 73 73 74 84 73 76 77 75 80 81 82 82
63 63 65 67 72 70 69 68 67 67 69 72 71 70 69 69 71 72 71 68 69 71 73 71 74 67 76 76 76 76 74 71 71 72 76 79 78 70 74 74 82 85 84 84 83
64 65 65 66 68 69 69 68 68 66 68 70 71 71 70 72 69 70 71 70 70 71 73 73 77 77 76 77 76 78 76 75 77 81 81 77 71 70 69 72 82 89 88 85 86
65 66 65 68 68 69 70 71 71 70 69 68 72 70 70 72 72 73 71 69 67 68 68 69 73 70 72 72 70 72 72 73 77 74 66 68 73 75 74 71 70 72 71 76 75
64 62 64 66 65 66 67 67 68 68 70 69 71 69 70 71 70 69 69 70 67 66 66 68 71 70 69 60 58 61 62 66 72 73 76 75 82 86 78 76 76 68 70 72 77
61 62 62 63 64 66 67 67 68 67 71 71 72 71 70 71 70 70 69 70 69 68 66 66 67 68 74 65 72 81 79 75 76 79 84 87 86 82 87 92 89 81 83 86 85
Wind_Direction
260 263 264 265 258 256 261 267 277 281 284 285 289 291 295 297 298 295 297 293 296 296 297 300 301 301 300 300 299 299 301 298 299 299 297 298 297 290 292 283 286 282 290 295 298
260 260 262 264 265 263 266 271 277 282 285 287 287 288 290 291 289 289 291 291 293 293 293 293 294 295 295 294 293 293 297 290 293 291 291 292 290 287 288 282 274 274 281 281 285
262 263 264 264 266 269 271 273 275 278 282 285 288 290 291 293 292 289 290 292 294 295 295 294 293 293 292 292 291 291 294 287 290 289 290 289 286 288 285 283 271 276 276 274 267
266 267 268 268 269 271 272 274 276 277 278 280 282 284 285 289 289 286 289 289 291 290 291 292 291 290 289 289 289 291 292 286 287 286 292 288 287 286 284 284 276 275 273 273 268
267 269 269 270 271 271 273 274 275 277 278 279 280 281 281 285 282 285 286 287 287 289 290 290 290 289 288 292 292 291 288 287 285 287 288 287 288 282 289 280 277 277 275 274 274
264 266 267 269 269 270 271 271 272 273 274 275 276 277 278 281 275 281 281 281 285 288 290 290 289 289 289 291 291 293 292 289 287 287 284 281 277 285 296 276 280 282 278 277 277
260 262 264 267 269 270 270 272 273 273 274 276 276 276 275 274 274 273 277 281 284 285 285 285 286 286 287 289 290 292 292 290 292 284 278 275 274 290 287 280 280 278 278 282 286
263 263 264 265 267 268 269 269 271 273 273 273 273 275 276 270 270 271 274 279 283 284 285 286 285 285 287 288 291 292 292 292 280 278 283 281 284 281 278 276 274 276 278 280 284
264 265 266 266 267 269 270 272 272 271 273 274 275 275 274 273 271 275 279 282 283 284 284 284 283 281 282 287 289 294 288 284 286 290 281 277 278 277 270 274 274 277 283 285 285
264 265 266 267 268 268 268 269 270 271 272 273 273 275 277 277 275 274 277 281 282 282 283 282 279 277 283 290 284 280 283 287 289 292 277 278 280 280 277 279 285 287 285 284 283
265 266 266 267 268 269 269 269 270 270 269 270 273 273 276 277 276 275 276 277 278 279 280 278 275 280 286 276 278 281 282 285 289 288 279 277 282 283 284 281 286 288 286 282 280
264 267 268 269 269 270 271 273 271 270 268 269 269 272 273 275 276 276 275 277 276 271 271 275 277 279 275 276 276 279 283 283 284 283 280 284 281 283 286 286 292 289 291 292 285
265 265 266 267 269 270 268 273 272 270 272 269 269 270 272 272 275 277 277 279 279 274 270 269 272 274 275 275 273 274 277 280 279 281 283 285 282 282 280 285 287 286 294 288 289
266 267 268 268 269 270 270 273 273 271 272 272 270 267 268 271 275 279 279 279 277 278 270 267 269 270 272 274 276 269 275 274 276 277 280 280 279 281 286 279 278 284 283 285 282
267 269 272 272 272 271 271 271 272 273 273 274 275 275 274 274 277 278 277 277 279 274 271 275 270 267 265 269 270 274 274 274 275 274 273 274 280 280 284 280 281 287 285 285 283
267 269 271 270 272 272 273 269 271 271 269 271 275 278 278 281 276 273 274 273 271 268 266 267 267 266 268 270 268 270 273 276 272 271 268 272 280 274 273 278 280 288 290 294 289
270 273 273 270 267 268 269 272 270 271 274 274 275 276 277 279 279 276 271 264 266 265 262 264 264 262 263 270 270 272 273 276 273 271 271 274 270 267 272 280 284 288 289 292 293
272 271 272 270 260 252 256 254 258 268 270 275 277 279 280 279 277 274 271 263 267 269 266 266 264 266 265 267 269 271 272 273 277 275 270 267 265 270 274 281 287 287 289 291 289
270 267 266 262 260 253 256 261 262 260 265 267 271 275 272 272 275 271 265 269 270 270 272 273 266 270 270 271 273 273 272 275 274 272 273 269 261 267 271 275 279 284 288 290 290
275 273 271 267 269 261 259 259 263 266 262 265 267 266 266 269 271 270 271 268 268 268 269 269 267 266 266 268 270 274 276 276 275 274 273 269 270 267 272 277 277 279 281 280 278
273 274 275 274 274 273 274 270 275 273 274 274 273 273 269 269 275 278 277 270 271 275 275 276 277 271 269 270 274 274 275 274 273 271 276 277 269 269 272 272 277 280 277 275 274
270 271 272 272 272 274 276 278 276 278 278 276 275 278 277 278 274 272 269 271 274 278 279 276 276 277 275 276 277 278 278 280 277 279 275 274 274 271 274 279 278 273 274 273 274
273 273 274 274 275 276 275 274 273 274 274 274 273 272 272 272 271 273 274 274 269 270 273 276 275 281 279 274 277 277 277 275 275 275 276 279 278 281 280 276 276 279 280 279 278
276 276 276 276 277 278 278 276 274 273 272 272 273 274 274 273 272 273 270 271 270 270 270 270 270 271 272 276 275 275 276 277 278 278 280 280 280 281 279 278 277 277 277 277 277
277 277 277 277 276 277 276 276 277 277 275 273 273 272 273 273 273 272 275 274 271 270 269 269 270 271 271 271 272 272 273 274 274 274 269 267 270 273 275 269 266 268 273 275 275
279 280 279 278 278 277 278 279 277 276 275 274 273 273 273 273 272 273 272 272 271 271 271 272 274 274 274 276 261 254 258 268 268 270 267 271 276 278 272 267 262 258 260 267 274
280 280 280 279 280 280 281 283 281 279 276 276 274 274 272 271 271 271 271 271 271 272 273 273 275 275 273 271 261 262 272 273 271 268 268 271 274 274 270 270 271 267 269 269 267